FENGYUN 1C DEB, 31618

Orbit data source: Space-Track

FENGYUN 1C DEB, 31618 is space debris in SSO originally from a launch on Mon, 10 May 1999 UTC launched from the Taiyaun Space Center, China (TSC). Fengyun 1C debris stems from the Chinese weather satellite Fengyun-1C, which was intentionally destroyed by a Chinese anti-satellite missile in 2007. This event dramatically increased the amount of space debris, with thousands of trackable fragments posing hazards to satellites and human spaceflight. The Fengyun 1C debris cloud has become a focal point in discussions about space sustainability and the need for international regulations to prevent the creation of new debris.

Loading next visibility...
Identifier
31618, 1999-025BZY
Orbit
SSO
Country
Flag of CNCN / PRC
Related business
Manufacturer
Unknown
Mission
Spacecraft
Bus & Motor
Unknown
Mass
Unknown
Launch date (UTC)
1999-05-10 (27 years ago)
Launch vehicle
Unknown
Launch site
Taiyaun Space Center, China (TSC)
Object type
Payload
Rocket body
Debris
Shape & HBR
Unknown shape, 0.1 m
Radar Cross Section
Small (<0.1 m²)

Expand to show TLE details & history
Last TLE update: 1 day ago

TLE from 1 day ago
0 FENGYUN 1C DEB
1 31618U 99025BZY 26262.24967367  .00000413  00000-0  18818-3 0  9993
2 31618  99.4789  70.1826 0155875 254.1650 104.2293 14.21471390742494
Epoch: 2026-09-19T05:59Z
TLE epoch observation values (Epoch: 2026-09-19T05:59:31.805Z)
Latitude
-0.00005°
Longitude
-17.86083°
Altitude
852.492 km
Speed
7.411 km/s
True Right ascension
04h 40m 43s
True Declination
0° 00' 00"
Sunlit
Object was in daylight at epoch
Visualization orbit readout
Latitude
Unknown
Longitude
Unknown
Altitude
Unknown
Speed
Unknown
Apparent Right ascension
Unknown
Apparent Declination
Unknown
Sunlit
N/A
Visualization observer readout
Local Sidereal Time
02:11:16
Azimuth
Unknown
Elevation
Unknown
Doppler factor
Unknown
Orbital elements
Apogee altitude
929.738 km
Perigee altitude
705.412 km
Semi-major axis
7,195.712 km
Eccentricity
0.01559
Inclination
99.4789°
RAAN
70.1826°
Arg. of periapsis
254.165°
True anomaly
105.95218°
Mean anomaly
104.2293°
Eccentric anomaly
105.0916°
Mean motion
3.55576 °/min
Orbital period
101.24 mins
BSTAR
0.00018818
Loading maneuver chart data...
Computing Atmospheric mass density...

Documentation

Showing up to 5 results
|